User: anonymous   Login
Location: Banksville Park
(38.5557°N, 75.1182°W)
Time: 01:07:58
(UTC+00:00)
Language:

Cosmos 2227 - Orbit

View from above orbital plane
View from above orbital plane
View from above satellite
View from above satellite

Ground track
Ground track

The orbit data is extracted from the following two-line orbital elements,

1 22284U 92093A   20336.49247835 +.00000038 +00000-0 +45757-4 0  9990
2 22284 070.9761 107.0887 0016914 061.9933 298.2897 14.13316851440863
Epoch (UTC): 01 December 2020 11:49:10
Eccentricity: 0.0016914
inclination: 70.9761°
perigee height: 836 km
apogee height: 860 km
right ascension of ascending node: 107.0887°
argument of perigee: 61.9933°
revolutions per day: 14.13316851
mean anomaly at epoch: 298.2897°
orbit number at epoch: 44086

The dashed part of the orbit path shows where the satellite is in the earth's shadow,  

DLR